Sioux Falls, SD

1:26 PM CDT on April 27, 2017 (GMT -0500)
Foss

Weather History for KFSD - July, 2012

Change the Weather History Date:

Wednesday, July 18, 2012

  Actual Average Record
Temperature  
Mean Temperature 83 °F 73 °F  
Max Temperature 94 °F 84 °F 105 °F (1940)
Min Temperature 72 °F 62 °F 50 °F (1893)
Degree Days  
Heating Degree Days 0 0  
Month to date heating degree days 0 0  
Since 1 June heating degree days 21 51  
Since 1 July heating degree days 0 0  
Cooling Degree Days 18 9  
Month to date cooling degree days 299 149  
Year to date cooling degree days 626 320  
Since 1 June cooling degree days 540 284  
Growing Degree Days 33 (Base 50)    
Moisture  
Dew Point 68 °F    
Average Humidity 63    
Maximum Humidity 87    
Minimum Humidity 38    
Precipitation  
Precipitation 0.01 in 0.09 in 1.61 in (1915)
Month to date precipitation 0.01 1.81  
Year to date precipitation 11.70 15.06  
Snow  
Snow 0.00 in 0.00 in 0.00 in ()
Month to date snowfall 0.0 0.0  
Since 1 June snowfall 0.0 0.0  
Since 1 July snowfall 0.0 0.0  
Snow Depth 0.00 in    
Sea Level Pressure  
Sea Level Pressure 29.84 in    
Wind  
Wind Speed 7 mph (East)    
Max Wind Speed 20 mph    
Max Gust Speed 24 mph    
Visibility 10 miles    
Events Rain , Thunderstorm    
T = Trace of Precipitation, MM = Missing Value Source: NWS Daily Summary

Daily Weather History Graph

Daily Weather History Graph

Search for Another Location

Airport or City:

Trip Planner

Search our weather history database for the weather conditions in past years. The results will help you decide how hot, cold, wet, or windy it might be!

Date:

Astronomy

Jul. 18, 2012 Rise Set
Actual Time 6:02 AM CDT 9:03 PM CDT
Civil Twilight 5:28 AM CDT 9:37 PM CDT
Nautical Twilight 4:44 AM CDT 10:20 PM CDT
Astronomical Twilight 3:52 AM CDT 11:12 PM CDT
Moon 5:39 AM CDT (7/18) 8:31 PM CDT (7/18)
Length of Visible Light 16h 08m
Length of Day
15h 00m
Waning Crescent, 0% of the Moon is Illuminated
Jul 18
Waning Crescent
Jul 18
New
Jul 26
First Quarter
Aug 1
Full
Aug 9
Last Quarter

Hourly Weather History & Observations

Time (CDT) Temp. Heat Index Dew Point Humidity Pressure Visibility Wind Dir Wind Speed Gust Speed Precip Events Conditions
12:56 AM 84.0 °F 87.8 °F 69.1 °F 61% 29.80 in 10.0 mi SE 6.9 mph - N/A   Partly Cloudy
1:56 AM 79.0 °F - 71.1 °F 77% 29.79 in 10.0 mi East 5.8 mph - N/A   Partly Cloudy
2:56 AM 79.0 °F - 71.1 °F 77% 29.77 in 10.0 mi ESE 9.2 mph - N/A   Clear
3:56 AM 75.9 °F - 70.0 °F 82% 29.78 in 10.0 mi NE 4.6 mph - N/A   Partly Cloudy
4:56 AM 73.9 °F - 68.0 °F 82% 29.79 in 10.0 mi North 3.5 mph - N/A   Clear
5:56 AM 73.9 °F - 68.0 °F 82% 29.81 in 10.0 mi NNE 4.6 mph - N/A   Partly Cloudy
6:56 AM 73.9 °F - 70.0 °F 87% 29.84 in 10.0 mi North 8.1 mph - N/A   Clear
7:56 AM 75.9 °F - 70.0 °F 82% 29.84 in 10.0 mi NE 16.1 mph - N/A   Clear
8:56 AM 80.1 °F 82.9 °F 69.1 °F 69% 29.84 in 10.0 mi NE 17.3 mph - N/A   Partly Cloudy
9:56 AM 80.1 °F 82.7 °F 68.0 °F 67% 29.89 in 10.0 mi South 13.8 mph 20.7 mph N/A   Overcast
10:10 AM 77.0 °F - 69.8 °F 78% 29.91 in 10.0 mi SE 12.7 mph - 0.00 in Rain , Thunderstorm Light Thunderstorms and Rain
10:38 AM 75.2 °F - 69.8 °F 83% 29.89 in 8.0 mi East 12.7 mph - 0.01 in Rain Light Rain
10:56 AM 75.9 °F - 70.0 °F 82% 29.85 in 10.0 mi ENE 5.8 mph - 0.01 in Rain Light Rain
11:56 AM 87.1 °F 89.2 °F 66.0 °F 49% 29.85 in 10.0 mi NE 8.1 mph - 0.00 in   Clear
12:56 PM 89.1 °F 91.3 °F 66.0 °F 46% 29.85 in 10.0 mi ESE 9.2 mph - N/A   Clear
1:56 PM 91.0 °F 91.9 °F 63.0 °F 39% 29.84 in 10.0 mi SE 4.6 mph - N/A   Clear
2:56 PM 91.0 °F 93.0 °F 64.9 °F 42% 29.85 in 10.0 mi East 8.1 mph - N/A   Partly Cloudy
3:56 PM 91.9 °F 94.5 °F 66.0 °F 42% 29.84 in 10.0 mi ENE 8.1 mph - N/A   Partly Cloudy
4:56 PM 93.0 °F 95.9 °F 66.0 °F 41% 29.83 in 10.0 mi NE 6.9 mph - N/A   Partly Cloudy
5:56 PM 93.0 °F 96.4 °F 66.9 °F 42% 29.84 in 10.0 mi NE 8.1 mph - N/A   Partly Cloudy
6:56 PM 90.0 °F 93.6 °F 68.0 °F 48% 29.85 in 10.0 mi East 8.1 mph - N/A   Partly Cloudy
7:56 PM 88.0 °F 90.7 °F 66.9 °F 49% 29.85 in 10.0 mi East 5.8 mph - N/A   Clear
8:56 PM 84.9 °F 87.6 °F 66.9 °F 55% 29.86 in 10.0 mi East 4.6 mph - N/A   Clear
9:56 PM 79.0 °F - 66.9 °F 66% 29.88 in 10.0 mi Calm Calm - N/A   Clear
10:56 PM 77.0 °F - 69.1 °F 76% 29.91 in 10.0 mi Calm Calm - N/A   Clear
11:56 PM 75.0 °F - 69.1 °F 82% 29.91 in 10.0 mi Calm Calm - N/A   Clear